Hourly Data Report for October 18, 2016

All times are specified in Local Standard Time (LST). Add 1 hour to adjust for Daylight Saving Time where and when it is observed.

KUGLUKTUK A
NUNAVUT

67°49'00.000" N
115°08'38.000" W
22.60 m
2300903
71938
YCO

Download Data

Hourly Data (October 2016)
Hourly Data Report for October 18, 2016
Temp Definition
°C
Dew Point Temp Definition
°C
Rel Hum Definition
%
Wind Dir Definition
10's deg

Wind Spd Definition
km/h
Visibility Definition
km
Stn Press Definition
kPa
Hmdx Definition


Wind Chill Definition


Weather Definition


TIME
00:00 Legend Double Dagger -8.5 -11.5 79 13 10 19.3 101.38   -13 Snow
01:00 Legend Double Dagger -7.7 -10.4 81 13 7 9.7 101.33   -11 Snow
02:00 Legend Double Dagger -7.2 -9.3 85 11 8 12.9 101.27   -11 Snow
03:00 Legend Double Dagger -6.5 -8.9 83 11 10 12.9 101.21   -11 Snow
04:00 Legend Double Dagger -6.0 -8.8 81 12 10 6.4 101.16   -10 Snow
05:00 Legend Double Dagger -6.1 -7.6 89 11 9 4.8 101.10   -10 Snow
06:00 Legend Double Dagger -5.8 -6.8 93 12 11 3.2 101.03   -11 Snow
07:00 Legend Double Dagger -5.5 -6.5 93 11 12 2.4 100.97   -10 Snow
08:00 Legend Double Dagger -5.5 -6.3 94 11 8 6.4 100.92   -9 Snow
09:00 Legend Double Dagger -5.5 -6.5 93 12 6 12.9 100.89   -8 Snow
10:00 Legend Double Dagger -5.2 -6.2 93 17 3 2.4 100.84   -7 Snow
11:00 Legend Double Dagger -5.2 -6.3 92 36 3 3.2 100.83   -7 Snow
12:00 Legend Double Dagger -5.0 -6.1 92 36 1 2.0 100.79   -5 Snow
13:00 Legend Double Dagger -5.0 -6.0 93 24 3 1.6 100.78   -6 Snow
14:00 Legend Double Dagger -4.8 -5.9 92 27 7 3.6 100.77   -8 Snow
15:00 Legend Double Dagger -5.3 -6.4 92 29 15 4.0 100.79   -11 Snow
16:00 Legend Double Dagger -6.1 -7.2 92 26 15 2.8 100.81   -12 Snow
17:00 Legend Double Dagger -6.6 -7.8 91 29 16 3.2 100.84   -13 Snow
18:00 Legend Double Dagger -7.6 -9.3 88 27 15 8.1 100.87   -14 Snow
19:00 Legend Double Dagger -9.3 -11.1 87 27 24 16.1 100.89   -18 Ice Crystals
20:00 Legend Double Dagger -9.0 -10.8 87 25 27 19.3 100.93   -18 Snow,Blowing Snow
21:00 Legend Double Dagger -9.0 -10.8 87 25 22 19.3 100.97   -17 Snow,Blowing Snow
22:00 Legend Double Dagger -9.2 -11.1 86 25 23 19.3 100.97   -17 Snow,Blowing Snow
23:00 Legend Double Dagger -9.1 -10.9 87 22 27 16.1 101.01   -18 Snow,Blowing Snow

Notes on Data Quality.

Legend

  • E = Estimated
  • M = Missing
  • NA = Not Available
  • ‡ = Partner data that is not subject to review by the National Climate Archives
Date modified: